Location: Sunkist
(34.0772°N, 117.1909°W)
Time: 15:21:49
(UTC+00:00)

USA 308 - Pass Details

Date: 13 April 2024
Orbit: 493 x 493 km, 54.0° (Epoch: 14 March)

Event Time Altitude Azimuth Distance (km) Brightness Sun altitude
Exits shadow 12:32:13 15° 250° (WSW) 1,348 4.1 -10.3°
Maximum altitude 12:35:03 43° 318° (NW) 699 3.2 -9.7°
Drops below altitude 10° 12:38:47 10° 31° (NNE) 1,694 6.1 -9.0°
Sets 12:41:04 0° 38° (NE) 2,567 7.2 -8.5°
